Tracking 35274 objects as of 12-Sep-2026
HD Live streaming from Space Station
objects crossing your sky now

STARLINK-5758

Track STARLINK-5758 now!
10-day predictions
STARLINK-5758 is classified as:


NORAD ID: 56037
Int'l Code: 2023-042BD
Launch date: March 24, 2022
Source: United States (US)
Launch site: AIR FORCE EASTERN TEST RANGE (AFETR)
Your satellite tracking list
Your tracking list is empty




NASA's NSSDC Master Catalog

Two Line Element Set (TLE):
1 56037U 23042BD  26254.78919388  .00000252  00000-0  18678-4 0  9997
2 56037  43.0041  59.7591 0001164 279.4388  80.6332 15.27570605191667
Source of the keplerian elements: AFSPC